Regional Weather Roundup
Issued by NWS

Home | Current Version | Previous Version | Graphics & Text | Print | Product List | Glossary Off
Versions: 1 2 3 4 5 6 7 8 9 10 11 12 13 14 15 16 17 18 19 20 21 22 23 24 25 26 27 28 29 30 31 32 33 34 35 36 37 38 39 40 41 42 43 44 45 46 47 48 49

000
ASUS45 KBOU 191007
RWRCO

WEATHER ROUNDUP FOR COLORADO
NATIONAL WEATHER SERVICE DENVER/BOULDER CO
400 AM MDT FRI SEP 19 2014

NOTE: "FAIR" INDICATES FEW OR NO CLOUDS BELOW 12000 FEET WITH NO
SIGNIFICANT WEATHER AND/OR OBSTRUCTIONS TO VISIBILITY.

COZ001>005-013-030-031-191100-
...NORTHWEST COLORADO...

CITY           SKY/WX    TMP DP  RH WIND       PRES   REMARKS
CRAIG          MOCLDY    44  39  82 W3        30.08R
HAYDEN         PTCLDY    54  37  54 E9        30.09S
MEEKER         PTCLDY    50  39  66 N5        30.10R
MOUNT WERNER   NOT AVBL
STEAMBOAT SPGS PTCLDY    47  40  76 CALM      30.12R
WALDEN         PTCLDY    41  32  70 SE5       30.18S
$$

COZ006>008-011-191100-
...WEST CENTRAL VALLEYS...

CITY           SKY/WX    TMP DP  RH WIND       PRES   REMARKS
GRAND JUNCTION CLEAR     58  42  55 E8        29.96R
MONTROSE       CLEAR     59  43  55 SE6       30.06R
EAGLE          CLEAR     50  39  66 CALM      30.15R
RIFLE          PTCLDY    53  42  66 CALM      30.04R
DELTA          CLEAR     59  43  56 NE7       30.02S HAZE
NUCLA          CLEAR     55  41  58 SE8       30.10R
$$

COZ017>023-064>068-191100-
...SOUTHWEST COLORADO...

CITY           SKY/WX    TMP DP  RH WIND       PRES   REMARKS
DURANGO        CLEAR     50  41  71 CALM      30.14S
CORTEZ         CLEAR     47  43  86 NE6       30.08R
PAGOSA SPRINGS CLEAR     49  36  60 CALM      30.21S
TELLURIDE      NOT AVBL
WOLF CREEK PAS CLEAR     41  39  93 SW14      30.46F
$$

COZ009-010-012-014-032>034-037-058>063-191100-
...CENTRAL COLORADO...

CITY           SKY/WX    TMP DP  RH WIND       PRES   REMARKS
ASPEN          CLEAR     48  36  63 S6        30.18R
BUENA VISTA    CLEAR     46  31  56 NW5       30.22S
COPPER MTN     NOT AVBL
BERTHOUD PASS  FAIR      43  41  93 W17       30.52S
COTTONWOOD PAS CLEAR     55  28  35 W6        30.33S
GUNNISON       CLEAR     43  36  75 CALM      30.23S
KREMMLING      CLEAR     43  36  75 CALM      30.19S
LEADVILLE      CLEAR     43  26  51 NE6       30.33F
MONARCH PASS   CLEAR     45  30  57 SW8       30.57S
SALIDA         CLEAR     50  32  51 W7        30.27S
SUNLIGHT       PTCLDY    55  34  44 CALM      30.41S
WILKERSON PASS NOT AVBL
$$

COZ069>075-191100-
...SAN LUIS VALLEY/SANGRE DE CRISTO MOUNTAINS...

CITY           SKY/WX    TMP DP  RH WIND       PRES   REMARKS
ALAMOSA        PTCLDY    42  35  76 SW3       30.17S
LA VETA PASS   CLEAR     45  37  76 S7        30.33S
SAGUACHE       NOT AVBL
$$

COZ035-036-038>040-191100-
...NORTHERN COLORADO FRONT RANGE...

CITY           SKY/WX    TMP DP  RH WIND       PRES   REMARKS
DENVER INTL AP CLEAR     67  33  28 S17       29.95F
DMNS CITY PARK   N/A     71  32  23 S9G17     29.94S
AURORA         CLEAR     64  34  32 S16       29.98F
FRONT RANGE AP CLEAR     64  37  36 S14       29.98S
ERIE MUNI ARPT CLEAR     57  39  51 CALM      29.93S
BOULDER MUN AP CLEAR     59  41  51 SW5       29.94S
CENTENNIAL     CLEAR     64  33  31 S13       30.01S
BROOMFIELD     CLEAR     63  34  34 SW6       29.98S
FORT COLLINS   CLEAR     55  43  62 CALM      29.94F
LONGMONT       CLEAR     52  43  71 CALM      29.95S
$$

COZ041-046-047-076>085-087-088-191100-
...PIKES PEAK/PALMER DIVIDE AND SOUTHERN FOOTHILLS...

CITY           SKY/WX    TMP DP  RH WIND       PRES   REMARKS
COLO. SPRINGS  CLEAR     53  45  74 N7        30.08S
A. F. ACADEMY  CLEAR     46  40  79 N10       30.09F
ELLICOTT       NOT AVBL
FALCON         CLEAR     53  45  74 SW6       30.12F
FORT CARSON    CLEAR     52  47  83 NW8       30.04F
LIMON          CLEAR     60  50  69 SW8       30.01F
MONUMENT HILL  CLEAR     61  34  36 S16       30.09F
TRINIDAD       CLEAR     58  52  80 W12       30.04F
$$

COZ042>045-048>051-090-091-191100-
...NORTHEAST COLORADO...

CITY           SKY/WX    TMP DP  RH WIND       PRES   REMARKS
GREELEY ARPT   CLEAR     52  39  62 W5        29.92S
AKRON          CLEAR     65  54  67 SW16G23   29.94S
BURLINGTON     CLEAR     62  56  80 SW14      29.95F
WRAY           CLEAR     61  56  85 SW8       29.89S
STERLING       CLEAR     59  54  82 CALM      29.88S
HOLYOKE        CLEAR     61  55  82 SW8       29.88S
FORT MORGAN    CLEAR     56  49  79 MISG      29.92F
$$

COZ086-089-092>099-191100-
...SOUTHEAST COLORADO...

CITY           SKY/WX    TMP DP  RH WIND       PRES   REMARKS
PUEBLO         CLEAR     53  47  79 W6        29.98S
LA JUNTA       CLEAR     57  54  89 SE6       29.96F
LAMAR          CLEAR     55  53  93 CALM      29.94F
SPRINGFIELD      N/A     60  60 100 S15       30.01F
$$


USA.gov is the U.S. government's official web portal to all federal, state and local government web resources and services.